Weather observations for the past three days for
Akron, Akron Fulton International Airport
Imperial (Metric)
Date Time (edt) Wind (mph) Vis. (mi.) Weather Sky Cond. Temperature (ºF) Relative Humidity Wind Chill (°F) Heat Index (°F) Pressure Precipitation (in)
Air Dwpt 6 hour altimeter (in) sea level (mb) 1 hr 3 hr 6 hr
Max. Min.
14 23:54 SW 10 10.00 Fair CLR 71.1 64.9 81% 29.97 1013.7
14 22:54 SW 7 10.00 Fair CLR 72 66 82% 29.97 1014.0
14 21:54 W 6 10.00 Fair CLR 73 66.9 81% 29.98 1014.2
14 20:54 SW 8 10.00 Fair CLR 75.9 66 72% 77 29.97 1014.1
14 19:54 SW 5 10.00 A Few Clouds FEW110 79 66 87.1 79 65% 81 29.97 1014.0
14 18:54 SW 12 10.00 A Few Clouds FEW045 FEW060 84 68 59% 87 29.97 1014.1
14 17:54 SW 9 10.00 Fair CLR 86 69.1 57% 90 29.96 1013.7
14 16:54 SW 13 10.00 A Few Clouds FEW050 84.9 66.9 55% 88 29.98 1014.2
14 15:54 SW 15 G 23 10.00 A Few Clouds FEW100 86 68 55% 89 30.01 1015.1
14 14:54 SW 10 10.00 Partly Cloudy SCT120 84 69.1 61% 88 30.02 1015.5
14 13:54 SW 12 G 22 10.00 Partly Cloudy SCT110 84.9 68 86 73 57% 88 30.04 1016.2
14 12:54 SW 12 G 20 10.00 A Few Clouds FEW100 84.9 68 57% 88 30.06 1017.1
14 11:54 SW 9 10.00 Fair CLR 86 69.1 57% 90 30.08 1017.7
14 10:54 W 9 10.00 Fair CLR 84 69.1 61% 88 30.09 1017.8
14 09:54 SW 10 10.00 Fair CLR 82 68 63% 85 30.1 1018.2
14 08:54 S 9 10.00 Fair CLR 78.1 68 71% 80 30.1 1018.2
14 07:54 SW 7 10.00 Fair CLR 73 66.9 73 66.9 81% 30.11 1018.8
14 06:54 Calm 8.00 Fair CLR 68 64.9 90% 30.11 1018.9
14 05:54 Calm 8.00 Fair CLR 68 64.9 90% 30.11 1018.6
14 04:54 Calm 10.00 Fair CLR 68 64.9 90% 30.1 1018.4
14 03:54 Calm 10.00 Fair CLR 69.1 64.9 87% 30.09 1018.1
14 02:54 Calm 10.00 Fair CLR 70 66 87% 30.11 1018.5
14 01:54 Calm 8.00 Fair CLR 69.1 66.9 82.9 69.1 93% 30.14 1019.5
14 00:54 S 3 10.00 Fair CLR 71.1 68 90% 30.15 1019.9
13 23:54 Calm 10.00 Fair CLR 73 66.9 81% 30.14 1019.6
13 22:54 SE 3 10.00 Fair CLR 75.9 69.1 79% 77 30.14 1019.5
13 21:54 E 3 9.00 Fair CLR 78.1 69.1 74% 80 30.14 1019.8
13 20:54 E 5 10.00 Fair CLR 80.1 69.1 69% 83 30.15 1019.9
13 19:54 N 8 10.00 Fair CLR 82.9 64.9 89.1 82 55% 85 30.14 1019.8
13 18:54 Calm 10.00 Mostly Cloudy SCT075 BKN100 82.9 69.1 63% 87 30.14 1019.8
13 17:54 N 9 10.00 Mostly Cloudy BKN050 BKN065 86 66.9 53% 89 30.14 1019.7
13 16:54 N 8 10.00 Partly Cloudy SCT070 88 66.9 50% 91 30.14 1019.5
13 15:54 W 12 G 16 10.00 Fair CLR 88 66 48% 90 30.14 1019.7
13 14:54 W 6 10.00 Partly Cloudy FEW055 SCT070 SCT100 87.1 64 46% 88 30.15 1020.0
13 13:54 W 9 10.00 Partly Cloudy SCT049 87.1 66 88 73 50% 89 30.16 1020.3
13 12:54 S 5 10.00 Partly Cloudy FEW048 FEW080 SCT095 87.1 66.9 51% 90 30.17 1020.8
13 11:54 SW 6 10.00 A Few Clouds FEW045 86 68 55% 89 30.18 1021.0
13 10:54 Calm 10.00 Fair CLR 82.9 66.9 59% 86 30.19 1021.1
13 09:54 Calm 10.00 Fair CLR 80.1 66.9 64% 82 30.19 1021.4
13 08:54 Calm 10.00 Mostly Cloudy BKN047 BKN055 75.9 66 72% 77 30.2 1021.7
13 07:54 Calm 10.00 Fair CLR 73 68 73 68 84% 30.19 1021.4
13 06:54 Calm 10.00 Mostly Cloudy BKN060 70 66.9 90% 30.18 1021.2
13 05:54 Calm 10.00 Overcast SCT055 BKN070 OVC090 70 66.9 90% 30.17 1020.8
13 04:54 Calm 10.00 Mostly Cloudy BKN075 69.1 66.9 93% 30.16 1020.4
13 03:54 Calm 9.00 Partly Cloudy SCT090 69.1 64.9 87% 30.15 1019.9
13 02:54 Calm 10.00 Fair CLR 70 66 87% 30.14 1019.7
13 01:54 Calm 10.00 Fair CLR 72 66 82.9 72 82% 30.15 1020.1
13 00:54 Calm 10.00 A Few Clouds FEW100 73 66 79% 30.15 1020.1
12 23:54 E 3 10.00 Overcast OVC095 75.9 64.9 69% 78 30.16 1020.2
12 22:54 E 6 7.00 Overcast OVC095 78.1 64 62% 80 30.15 1020.0
12 21:54 E 5 10.00 A Few Clouds FEW055 79 64 60% 81 30.14 1019.6
12 20:54 E 3 10.00 Fair CLR 81 64.9 58% 83 30.13 1019.5
12 19:54 E 5 10.00 Partly Cloudy FEW050 SCT060 82.9 64.9 88 82 55% 85 30.13 1019.5
12 18:54 Calm 10.00 A Few Clouds FEW060 84.9 64 50% 86 30.12 1019.1
12 17:54 Calm 10.00 Mostly Cloudy BKN050 84.9 63 48% 86 30.11 1018.9
12 16:54 NE 7 10.00 Fair CLR 87.1 64.9 48% 89 30.11 1019.0
12 15:54 Calm 10.00 Mostly Cloudy BKN055 BKN070 86 62.1 45% 87 30.12 1019.2
12 14:54 Calm 10.00 Mostly Cloudy SCT049 BKN065 86 64 48% 87 30.14 1019.7
12 13:54 SE 5 10.00 A Few Clouds FEW065 82 62.1 84 69.1 51% 83 30.15 1020.2
12 12:54 Calm 10.00 Fair CLR 82 63 53% 83 30.17 1020.8
12 11:54 Vrbl 3 10.00 Partly Cloudy SCT038 80.1 64 58% 82 30.18 1021.2
12 10:54 Vrbl 5 10.00 Fair CLR 78.1 63 60% 80 30.17 1020.9
12 09:54 SE 6 10.00 Fair CLR 75.9 64 67% 78 30.17 1020.9
12 08:54 SE 3 10.00 Fair CLR 72 64 76% 30.17 1020.7
12 07:54 S 5 10.00 Fair CLR 69.1 63 69.1 61 81% 30.16 1020.4
12 06:54 Calm 9.00 Fair CLR 63 61 93% 30.15 1020.2
12 05:54 Calm 10.00 Fair CLR 62.1 59 90% 30.14 1019.7
12 04:54 Calm 10.00 Fair CLR 62.1 59 90% 30.12 1019.4
12 03:54 Calm 10.00 Fair CLR 63 60.1 90% 30.12 1019.4
12 02:54 Calm 10.00 Fair CLR 64 61 90% 30.13 1019.4
12 01:54 SE 3 10.00 Fair CLR 66 62.1 78.1 64 87% 30.13 1019.3
12 00:54 Calm 10.00 Fair CLR 64.9 62.1 90% 30.13 1019.4
Date Time (edt) Wind (mph) Vis. (mi.) Weather Sky Cond. Air Dwpt Max. Min. Relative Humidity Wind Chill (°F) Heat Index (°F) altimeter (in) sea level (mb) 1 hr 3 hr 6 hr
6 hour
Temperature (ºF) Pressure Precipitation (in)